Location: *
(52.2090°N, 4.1550°W)
Time: 22:12:53
(UTC+00:00)

Cosmos 292 Rocket - Pass Details

Date: 19 July 2019
Orbit: 674 x 694 km, 74.0° (Epoch: 24 August)

Event Time Altitude Azimuth Distance (km) Brightness Sun altitude
Rises 21:47:50 0° 333° (NNW) 3,083 9.2 -9.6°
Reaches altitude 10° 21:50:10 10° 332° (NNW) 2,159 7.9 -9.8°
Maximum altitude 21:55:01 73° 248° (WSW) 725 3.9 -10.2°
Enters shadow 21:59:20 13° 165° (SSE) 1,947 5.5 -10.6°
